Total_Precipitation_Accumulation
0.91 0.97 1.05 1.11 1.19 1.33 1.45 1.50 1.56 1.57 1.60 1.74 1.87 2.02 2.05 2.03 2.01 1.97 1.88 1.82 1.75 1.67 1.66 1.71 1.69 1.63 1.67 1.66 1.70 1.82 1.95 2.12 2.16 1.72 1.45 1.45 1.59 1.62 1.65 1.57 1.52 1.52 1.50
0.79 0.83 0.89 0.97 1.02 1.11 1.21 1.28 1.35 1.40 1.44 1.50 1.53 1.61 1.75 1.81 1.87 1.88 1.82 1.73 1.67 1.59 1.53 1.58 1.60 1.60 1.65 1.66 1.72 1.77 1.81 1.88 1.98 1.85 1.56 1.46 1.44 1.42 1.38 1.36 1.34 1.28 1.22
0.73 0.78 0.82 0.85 0.88 0.92 0.96 1.02 1.06 1.14 1.23 1.32 1.34 1.36 1.42 1.49 1.57 1.66 1.71 1.69 1.62 1.55 1.55 1.55 1.55 1.63 1.69 1.69 1.72 1.77 1.73 1.68 1.66 1.65 1.47 1.30 1.27 1.27 1.34 1.28 1.25 1.25 1.13
0.69 0.73 0.79 0.78 0.78 0.81 0.81 0.85 0.86 0.90 0.93 0.99 1.07 1.13 1.21 1.27 1.34 1.40 1.48 1.56 1.61 1.61 1.61 1.61 1.60 1.67 1.77 1.80 1.80 1.77 1.72 1.66 1.58 1.54 1.46 1.33 1.26 1.22 1.31 1.34 1.30 1.27 1.21
0.68 0.68 0.70 0.74 0.74 0.74 0.73 0.73 0.72 0.73 0.75 0.76 0.85 0.94 1.03 1.10 1.18 1.26 1.32 1.40 1.45 1.50 1.56 1.62 1.64 1.75 1.81 1.79 1.69 1.58 1.54 1.55 1.49 1.46 1.39 1.29 1.23 1.23 1.25 1.18 1.15 1.17 1.21
0.65 0.64 0.64 0.68 0.71 0.73 0.70 0.66 0.66 0.69 0.74 0.75 0.77 0.83 0.92 0.99 1.21 1.30 1.27 1.26 1.33 1.39 1.42 1.44 1.49 1.58 1.51 1.52 1.49 1.42 1.47 1.56 1.54 1.42 1.27 1.12 0.97 0.95 0.98 1.08 1.15 1.27 1.33
0.71 0.67 0.64 0.65 0.69 0.71 0.74 0.74 0.74 0.74 0.78 0.81 0.79 0.82 0.85 0.97 1.19 1.24 1.36 1.30 1.28 1.29 1.28 1.28 1.25 1.19 1.22 1.08 1.14 1.17 1.18 1.25 1.27 1.23 1.20 0.97 0.84 0.82 0.99 1.16 1.19 1.17 1.07
0.87 0.84 0.77 0.79 0.84 0.88 0.91 0.94 0.92 0.91 0.94 0.96 0.93 0.94 0.97 1.07 1.23 1.24 1.29 1.21 1.13 1.09 1.04 1.03 1.04 0.99 0.99 1.05 1.06 1.05 0.92 0.86 0.86 0.83 0.83 0.79 0.80 0.88 1.08 1.28 1.33 1.34 1.17
1.05 1.13 1.09 1.06 1.10 1.16 1.19 1.21 1.20 1.18 1.17 1.16 1.16 1.12 1.11 1.13 1.16 1.08 1.08 1.02 0.97 0.89 0.83 0.83 0.87 0.88 0.97 1.14 1.14 1.08 0.95 0.85 0.85 0.91 0.92 0.93 1.02 1.10 1.22 1.43 1.61 1.77 1.65
1.16 1.26 1.23 1.20 1.20 1.23 1.24 1.21 1.16 1.12 1.12 1.08 1.08 1.03 0.96 0.90 0.91 0.88 0.87 0.83 0.82 0.73 0.70 0.72 0.84 0.90 1.06 1.22 1.20 1.15 1.07 0.90 0.85 0.91 0.91 0.90 0.89 0.95 1.08 1.12 1.30 1.67 1.68
1.13 1.13 1.09 1.03 0.97 0.96 0.95 0.91 0.87 0.83 0.83 0.80 0.78 0.75 0.68 0.65 0.68 0.74 0.79 0.81 0.83 0.80 0.74 0.70 0.72 0.91 1.05 1.20 1.26 1.18 1.11 1.04 1.00 1.02 1.02 0.98 0.95 0.97 0.98 0.95 1.02 1.34 1.66
0.86 0.81 0.77 0.74 0.71 0.69 0.72 0.71 0.67 0.65 0.65 0.62 0.60 0.59 0.57 0.55 0.59 0.65 0.76 0.82 0.88 0.90 0.80 0.67 0.67 0.88 1.03 1.10 1.13 1.16 1.23 1.22 1.13 1.12 1.11 1.08 1.01 0.97 0.93 0.91 0.94 1.01 1.14
0.60 0.56 0.55 0.54 0.55 0.55 0.57 0.60 0.59 0.58 0.60 0.59 0.58 0.59 0.60 0.57 0.58 0.65 0.72 0.78 0.85 0.85 0.78 0.80 0.87 0.97 1.00 1.00 1.04 1.11 1.15 1.10 1.11 1.11 1.04 0.92 0.84 0.83 0.89 0.98 1.05 1.08 1.10
0.54 0.53 0.50 0.49 0.52 0.55 0.58 0.61 0.63 0.64 0.67 0.68 0.68 0.67 0.64 0.62 0.60 0.64 0.73 0.77 0.84 0.87 0.86 0.87 0.91 0.96 0.98 0.98 1.02 1.03 1.03 1.04 1.08 1.05 0.92 0.84 0.84 0.91 1.00 1.04 1.14 1.21 1.34
0.55 0.55 0.54 0.52 0.52 0.57 0.61 0.66 0.73 0.73 0.80 0.93 0.90 0.84 0.85 0.81 0.73 0.84 0.96 0.97 0.99 1.03 1.08 1.06 0.98 0.94 0.97 0.97 0.95 0.95 0.99 1.05 1.09 1.01 1.00 1.01 1.00 1.01 1.02 1.02 1.14 1.25 1.35
0.58 0.57 0.58 0.60 0.58 0.59 0.61 0.69 0.77 0.81 0.84 0.85 0.88 0.94 0.92 0.94 0.97 1.01 1.02 1.03 1.06 1.15 1.25 1.15 0.95 0.86 0.85 0.85 0.88 0.91 0.95 0.99 1.01 1.06 1.12 1.15 1.17 1.16 1.15 1.12 1.20 1.33 1.32
0.65 0.66 0.66 0.65 0.65 0.67 0.68 0.69 0.77 0.83 0.86 0.85 0.83 0.86 0.92 0.99 1.04 1.06 1.07 1.09 1.13 1.19 1.18 0.96 0.82 0.79 0.79 0.81 0.86 0.90 0.93 0.93 1.02 1.16 1.22 1.22 1.27 1.29 1.29 1.28 1.27 1.35 1.34
0.58 0.64 0.68 0.68 0.68 0.70 0.72 0.73 0.73 0.77 0.81 0.84 0.83 0.85 0.90 0.96 1.01 1.08 1.13 1.20 1.23 1.14 1.00 0.85 0.80 0.78 0.82 0.88 0.93 0.97 0.99 1.01 1.10 1.17 1.20 1.24 1.32 1.42 1.44 1.36 1.31 1.35 1.39
0.56 0.62 0.68 0.71 0.71 0.73 0.74 0.76 0.76 0.76 0.76 0.77 0.79 0.88 0.95 1.01 1.04 1.09 1.12 1.13 1.04 0.94 0.86 0.83 0.83 0.86 0.90 0.95 1.00 1.05 1.10 1.13 1.13 1.19 1.21 1.21 1.30 1.48 1.45 1.28 1.31 1.36 1.47
0.59 0.68 0.75 0.77 0.76 0.76 0.78 0.81 0.82 0.80 0.80 0.79 0.80 0.90 1.05 1.14 1.11 1.05 1.02 0.97 0.94 0.90 0.87 0.89 0.89 0.94 1.00 1.05 1.08 1.13 1.18 1.16 1.17 1.22 1.21 1.22 1.28 1.43 1.45 1.34 1.36 1.46 1.42
0.62 0.67 0.75 0.76 0.76 0.77 0.81 0.84 0.84 0.84 0.83 0.80 0.82 0.93 1.20 1.28 1.14 1.00 0.97 0.95 0.96 0.97 1.00 1.02 1.00 1.02 1.07 1.12 1.16 1.16 1.17 1.12 1.11 1.19 1.23 1.25 1.32 1.41 1.35 1.37 1.38 1.42 1.50
0.65 0.67 0.71 0.74 0.76 0.81 0.87 0.89 0.90 0.87 0.81 0.79 0.79 0.88 1.06 1.05 0.99 0.96 0.94 0.92 0.93 0.97 1.04 1.13 1.12 1.05 1.10 1.22 1.29 1.30 1.21 1.09 1.05 1.15 1.24 1.26 1.32 1.36 1.39 1.45 1.46 1.54 1.60
0.69 0.71 0.71 0.71 0.75 0.82 0.86 0.82 0.83 0.83 0.80 0.78 0.79 0.81 0.86 0.88 0.86 0.88 0.91 0.92 0.94 0.97 0.99 1.06 1.08 1.00 0.98 1.10 1.23 1.39 1.42 1.20 1.11 1.24 1.45 1.47 1.44 1.47 1.56 1.61 1.53 1.51 1.43
0.69 0.71 0.72 0.72 0.74 0.76 0.76 0.75 0.75 0.77 0.79 0.79 0.79 0.78 0.78 0.80 0.82 0.83 0.88 0.92 0.96 0.97 0.97 1.00 1.01 0.97 0.95 1.04 1.10 1.16 1.24 1.34 1.56 1.69 1.82 2.03 1.90 1.70 1.67 1.62 1.46 1.39 1.40
0.67 0.70 0.72 0.73 0.76 0.76 0.75 0.73 0.72 0.73 0.75 0.77 0.77 0.76 0.75 0.76 0.78 0.79 0.82 0.87 0.91 0.92 0.90 0.91 0.95 0.96 0.97 0.99 1.02 1.06 1.15 1.35 1.69 2.14 2.34 2.25 1.93 1.66 1.65 1.60 1.46 1.41 1.43
0.64 0.68 0.71 0.73 0.74 0.74 0.74 0.74 0.73 0.73 0.75 0.76 0.77 0.78 0.79 0.80 0.79 0.80 0.81 0.84 0.87 0.86 0.84 0.84 0.86 0.89 0.94 0.98 0.96 1.01 1.16 1.29 1.43 1.66 2.13 2.28 2.01 1.69 1.65 1.74 1.58 1.52 1.51